Regional Weather Roundup
Issued by NWS

Home | Current Version | Previous Version | Text Only | Print | Product List | Glossary On
Versions: 1 2 3 4 5 6 7 8 9 10 11 12 13 14 15 16 17 18 19 20 21 22 23 24 25 26 27 28 29 30 31 32 33 34 35 36 37 38 39 40 41 42 43 44 45 46 47 48 49 50
000
ASUS44 KBMX 030710
RWRAL

ALABAMA REGIONAL WEATHER ROUNDUP
NATIONAL WEATHER SERVICE BIRMINGHAM AL
200 AM CDT MON AUG 03 2015

NOTE: "FAIR" INDICATES FEW OR NO CLOUDS BELOW 12,000 FEET
WITH NO SIGNIFICANT WEATHER AND/OR OBSTRUCTIONS TO VISIBILITY.

THE REMARK "TC" DENOTES TEMPERATURE IN DEGREES CELSIUS.

ALZ001>011-014-016>018-020-030800-
NORTH ALABAMA

CITY           SKY/WX    TMP DP  RH WIND       PRES   REMARKS
MUSCLE SHOALS  PTCLDY    65  61  87 CALM      29.93F
HUNTSVILLE     CLEAR     67  61  81 CALM      29.92F
DECATUR        CLEAR     64  61  90 CALM      29.92F
HALEYVILLE     FAIR      64  63  97 CALM      29.96F
GADSDEN        CLEAR     66  55  68 CALM      29.90S
$$

ALZ012-013-022-023-030>036-040>044-030800-
WEST CENTRAL ALABAMA

CITY           SKY/WX    TMP DP  RH WIND       PRES   REMARKS
TUSCALOOSA     CLEAR     71  65  81 SW3       29.89S
$$

ALZ015-024>027-033>036-040>044-030800-
CENTRAL ALABAMA

CITY           SKY/WX    TMP DP  RH WIND       PRES   REMARKS
BIRMINGHAM     CLEAR     71  62  73 CALM      29.92F
MONTGOMERY     CLEAR     73  69  87 CALM      29.85S
SHELBY CO ARPT CLEAR     70  66  87 CALM      29.90S
MAXWELL AFB    CLEAR     73  70  91 CALM      29.84F
GREENVILLE     FAIR      72  65  78 CALM      29.85F
$$

ALZ019-021-028-029-037-038-045>048-030800-
EAST CENTRAL ALABAMA

CITY           SKY/WX    TMP DP  RH WIND       PRES   REMARKS
ANNISTON       CLEAR     69  64  84 CALM      29.90S
ALEXANDER CITY CLEAR     72  62  71 CALM      29.89S
AUBURN         CLEAR     77  70  78 E8        29.90S
$$

ALZ051>064-030800-
SOUTHWEST ALABAMA

CITY           SKY/WX    TMP DP  RH WIND       PRES   REMARKS
MOBILE         CLEAR     77  76  96 W3        29.87F
BROOKLEY FIELD PTCLDY    81  75  82 W3        29.87F
EVERGREEN      CLEAR     69  67  93 CALM      29.86F
$$

ALZ049-050-065>069-030800-
SOUTHEAST ALABAMA

CITY           SKY/WX    TMP DP  RH WIND       PRES   REMARKS
DOTHAN         CLEAR     77  73  87 CALM      29.87F
OZARK          CLEAR     77  73  87 NW5       29.84F
TROY           CLEAR     75  73  93 CALM      29.86F
EUFAULA        FAIR      78  74  87 CALM      29.85S
$$


USA.gov is the U.S. government's official web portal to all federal, state and local government web resources and services.